sat.trackr.live / text

‹ back to catalog

ONEWEB-0139

NORAD 47285 · 2020-100AD

PAYLOAD ACTIVE UNKNOWN

§ Identity

Operator
Country
UK
Launch date
2020-12-18
Launch site
VOSTO
Launch vehicle
Mass (kg)
RCS (m²)

Purposes: comms

External: N2YO · Heavens-Above · Gunter

§ Orbital elements

Epoch: 2026-09-20T00:10:07.679712Z

Period
109.72 min
Inclination
87.8983°
Eccentricity
0.0001827
Mean motion
13.12443762 rev/d
Perigee alt
1,212.3 km
Apogee alt
1,215.1 km
Semi-major
7,591.9 km
B*
-3.6502e-4
RAAN
331.8299°
Arg perigee
99.2290°
Mean anomaly
260.9045°
Rev number
27,716

§ Raw data

ONEWEB-01391 47285U 20100AD  26263.00703333 -.00000119  00000+0 -36502-3 0  99982 47285  87.8983 331.8299 0001827  99.2290 260.9045 13.12443762277167

JSON: /api/v1/satellites/47285 · /tle

For live sub-satellite position, see the globe view (requires WebGL).

§ Visibility from observer

Set your observer location to see the next 7 days of passes ≥ 10°. The values pass through the URL so the page stays shareable.

No JS? Fill the form by hand. The geolocation button needs JavaScript.